DW9246 Weather Reports


Display with metric or nautical units.
time (UTC)temp
F
wind
direction
speed
MPH
gust
MPH
rain 1hr
in
rain 24hr
in
rain mn
in
humidity
%
barometer
mb
20260506113014 66 256 7.0 14.0 0.00 0.02 0.00 56 1012.5
20260506111014 65 345 5.0 13.0 0.00 0.02 0.00 55 1012.6
20260506110015 64 23 5.0 10.0 0.00 0.02 0.00 59 1012.7
20260506104014 65 171 3.0 9.0 0.00 0.02 0.00 59 1012.9
20260506103014 64 130 5.0 11.0 0.00 0.02 0.00 61 1012.9
20260506101014 63 156 5.0 11.0 0.00 0.02 0.00 59 1013.1
20260506100015 63 134 4.0 9.0 0.00 0.02 0.00 60 1013.1
20260506094014 63 138 7.0 13.0 0.00 0.02 0.00 62 1013.3
20260506093015 63 112 7.0 14.0 0.00 0.02 0.00 62 1013.2
20260506092014 62 83 9.0 14.0 0.00 0.02 0.00 59 1013.1
20260506091014 62 91 7.0 14.0 0.00 0.02 0.00 58 1012.9
20260506090017 62 290 4.0 12.0 0.00 0.02 0.00 57 1012.9
20260506083015 60 301 5.0 11.0 0.00 0.02 0.00 59 1012.7
20260506082014 60 327 5.0 16.0 0.00 0.02 0.00 61 1012.7
20260506081015 59 280 4.0 10.0 0.00 0.02 0.00 61 1012.5
20260506073015 57 220 3.0 12.0 0.00 0.02 0.00 68 1012.5
20260506072015 56 186 4.0 8.0 0.00 0.02 0.00 69 1012.5
20260506071015 56 177 2.0 6.0 0.00 0.02 0.00 70 1012.4
20260506062014 55 76 2.0 4.0 0.00 0.02 0.00 71 1012.2
20260506061021 54 109 2.0 4.0 0.00 0.02 0.00 73 1012.1
20260506051015 50 290 2.0 4.0 0.00 0.02 0.00 76 1011.7
20260506045015 51 40 3.0 7.0 0.00 0.02 0.00 75 1011.6
20260506044015 49 352 3.0 5.0 0.00 0.02 0.00 76 1011.6
20260506041015 50 316 5.0 7.0 0.00 0.02 0.00 76 1011.7
20260506040017 50 305 4.0 7.0 0.00 0.02 0.00 76 1011.7
20260506034016 52 278 3.0 6.0 0.00 0.02 0.00 74 1011.7
20260506032015 52 329 2.0 5.0 0.00 0.02 0.00 74 1011.7
20260506022014 53 270 7.0 11.0 0.00 0.02 0.00 72 1011.5
20260506020020 54 272 8.0 15.0 0.00 0.02 0.00 72 1011.2
20260506015014 54 272 9.0 13.0 0.00 0.02 0.00 71 1011.3
20260506014015 56 277 8.0 12.0 0.00 0.02 0.00 67 1011.4
20260506012016 57 307 9.0 16.0 0.00 0.02 0.00 63 1011.3
20260506011014 57 309 9.0 15.0 0.00 0.02 0.00 63 1011.4
20260506010017 56 320 6.0 12.0 0.00 0.02 0.00 64 1011.3
20260506005015 56 352 1.0 3.0 0.00 0.02 0.00 66 1011.5
20260506002015 56 306 6.0 13.0 0.00 0.02 0.00 69 1011.5
20260506001015 57 295 10.0 17.0 0.00 0.02 0.00 68 1011.6
20260505235015 57 291 10.0 20.0 0.00 0.02 0.02 65 1011.8
20260505234015 58 278 7.0 14.0 0.00 0.02 0.02 64 1011.8
20260505233015 58 288 9.0 14.0 0.00 0.02 0.02 63 1011.8
20260505232015 58 305 8.0 15.0 0.00 0.02 0.02 62 1011.7
20260505230019 58 319 11.0 18.0 0.00 0.02 0.02 62 1011.3
20260505225014 56 320 8.0 12.0 0.00 0.02 0.02 66 1011.4
20260505224014 55 342 7.0 11.0 0.00 0.02 0.02 71 1011.5
20260505223014 55 337 7.0 12.0 0.00 0.02 0.02 70 1011.6
20260505222015 57 328 6.0 10.0 0.00 0.02 0.02 66 1011.8
20260505221017 58 333 8.0 15.0 0.00 0.02 0.02 63 1011.9
20260505220016 58 4 10.0 18.0 0.00 0.02 0.02 64 1012.1
20260505215016 59 359 12.0 21.0 0.00 0.02 0.02 64 1012.0
20260505213014 57 327 19.0 33.0 0.00 0.02 0.02 68 1012.1
20260505212014 57 308 12.0 20.0 0.00 0.02 0.02 73 1012.4
20260505211014 57 282 9.0 25.0 0.00 0.02 0.02 78 1012.8
20260505210015 56 300 6.0 11.0 0.00 0.02 0.02 82 1012.7
20260505203014 55 318 3.0 7.0 0.00 0.02 0.02 83 1012.2
20260505202014 55 319 3.0 4.0 0.00 0.02 0.02 83 1012.2
20260505201014 56 319 2.0 3.0 0.00 0.02 0.02 83 1012.0
20260505200015 56 319 2.0 4.0 0.00 0.02 0.02 83 1011.7
20260505195014 56 319 2.0 4.0 0.00 0.02 0.02 82 1011.7
20260505194014 56 314 2.0 4.0 0.00 0.02 0.02 82 1011.4
20260505193019 57 334 3.0 5.0 0.00 0.03 0.02 82 1011.1
20260505192013 57 330 3.0 5.0 0.00 0.03 0.02 82 1011.1
20260505191015 57 336 2.0 6.0 0.00 0.03 0.02 82 1011.2
20260505190016 57 330 4.0 7.0 0.00 0.03 0.02 81 1011.1
20260505184013 58 331 2.0 4.0 0.00 0.04 0.02 81 1011.1
20260505183014 59 331 2.0 4.0 0.00 0.05 0.02 81 1011.0
20260505182014 59 331 1.0 3.0 0.00 0.06 0.02 81 1011.1
20260505181014 60 0 0.0 0.0 0.00 0.09 0.02 81 1011.3
20260505180015 60 330 0.0 2.0 0.00 0.21 0.02 81 1011.0
20260505175013 60 330 1.0 3.0 0.00 0.21 0.02 80 1011.0
20260505174014 60 331 1.0 4.0 0.00 0.21 0.02 79 1011.0
20260505172014 59 100 0.0 2.0 0.01 0.21 0.02 78 1011.1
20260505170014 59 48 2.0 6.0 0.02 0.21 0.02 80 1011.0
20260505165014 59 6 1.0 3.0 0.02 0.21 0.02 81 1011.0
20260505164014 59 6 2.0 4.0 0.02 0.21 0.02 81 1010.9
20260505163014 60 6 1.0 3.0 0.02 0.21 0.02 80 1011.1
20260505162012 60 348 2.0 4.0 0.01 0.20 0.01 79 1011.2
20260505161013 62 21 3.0 10.0 0.00 0.19 0.00 76 1011.1
20260505153014 63 179 5.0 10.0 0.00 0.19 0.00 73 1010.8
20260505152012 63 174 4.0 10.0 0.00 0.19 0.00 72 1010.9
20260505125013 67 129 5.0 11.0 0.00 0.20 0.00 64 1011.0
20260505124013 67 170 7.0 12.0 0.00 0.20 0.00 66 1011.1
20260505123012 66 144 7.0 13.0 0.00 0.20 0.00 66 1011.2
20260505122013 66 144 8.0 14.0 0.00 0.20 0.00 67 1011.2
20260505121013 66 137 6.0 12.0 0.00 0.20 0.00 67 1011.3
20260505120013 66 108 4.0 10.0 0.00 0.20 0.00 66 1011.4
20260505115013 65 121 3.0 8.0 0.00 0.20 0.00 67 1011.5